This demonstration page uses our WeatherBlox Daily Observations layout. Learn more.

Left ArrowRight Arrow

31.84235, -102.49876

Hourly Observations for May 25, 2021

Temp ( °F °C ) Dew Point ( °F °C ) Humidity (%) Winds ( mph kmh ) Pressure ( in mb ) Visibility ( mi km ) Precip ( " mm )
12:11 am 00:11 Mostly Cloudy with Thunderstorms 66 18.9 60 15.6 81 81 SE 9 15 29.93 1014 10 16 0.07 1.78
12:25 am 00:25 Mostly Clear 67 19.4 60 15.6 79 79 SE 5 7 29.93 1013 10 16 0.07 1.78
12:53 am 00:53 Clear 69 20.6 60 15.6 73 73 SSE 8 13 29.90 1012 10 16 0.07 1.78
1:53 am 01:53 Clear 70 21.1 60 15.6 71 71 SSE 9 15 29.87 1012 10 16 0.00 0.00
2:53 am 02:53 Clear 71 21.7 63 17.2 76 76 S 13 20 29.84 1011 10 16 0.00 0.00
3:53 am 03:53 Clear 71 21.7 63 17.2 76 76 S 13 20 29.84 1011 10 16 0.00 0.00
4:53 am 04:53 Clear 70 21.1 63 17.2 79 79 SSE 10 17 29.85 1011 10 16 0.00 0.00
5:53 am 05:53 Clear 69 20.6 64 17.8 84 84 S 7 11 29.86 1011 10 16 0.00 0.00
6:24 am 06:24 Mostly Cloudy 70 21.1 64 17.8 82 82 SE 7 11 29.88 1012 10 16 0.00 0.00
6:53 am 06:53 Cloudy 69 20.6 64 17.8 84 84 ENE 7 11 29.89 1012 10 16 0.00 0.00
7:53 am 07:53 Cloudy 70 21.1 65 18.3 84 84 SE 7 11 29.90 1013 10 16 0.00 0.00
8:53 am 08:53 Cloudy 71 21.7 65 18.3 81 81 SSE 12 19 29.91 1013 10 16 0.00 0.00
9:53 am 09:53 Mostly Cloudy 73 22.8 65 18.3 76 76 SSE 14 22 29.92 1013 10 16 0.00 0.00
10:53 am 10:53 Partly Cloudy 78 25.6 64 17.8 62 62 S 14 22 29.91 1013 10 16 0.00 0.00
11:53 am 11:53 Sunny 82 27.8 64 17.8 55 55 SSW 15 24 29.91 1013 10 16 0.00 0.00
12:53 pm 12:53 Sunny 85 29.4 61 16.1 45 45 S 16 26 29.89 1012 10 16 0.00 0.00
1:53 pm 13:53 Sunny 88 31.1 59 15 38 38 SSW 17 28 29.87 1012 10 16 0.00 0.00
2:53 pm 14:53 Sunny 91 32.8 56 13.3 31 31 S 14 22 29.84 1011 10 16 0.00 0.00
3:53 pm 15:53 Sunny 93 33.9 50 10 23 23 SE 7 11 29.81 1010 10 16 0.00 0.00
4:53 pm 16:53 Sunny 93 33.9 49 9.4 22 22 WNW 5 7 29.78 1009 10 16 0.00 0.00
5:45 pm 17:45 Partly Cloudy with Nearby Thunderstorms 84 28.9 62 16.7 48 48 S 28 44 29.75 1007 7 11 0.00 0.00
5:53 pm 17:53 Partly Cloudy with Nearby Thunderstorms 83 28.3 60 15.6 46 46 S 26 43 29.83 1010 7 11 0.00 0.00
6:19 pm 18:19 Mostly Sunny 81 27.2 62 16.7 53 53 SSE 21 33 29.79 1009 10 16 0.00 0.00
6:53 pm 18:53 Sunny 84 28.9 59 15 43 43 S 17 28 29.81 1010 10 16 0.00 0.00
7:53 pm 19:53 Sunny 86 30 46 7.8 25 25 S 16 26 29.81 1010 10 16 0.00 0.00
8:53 pm 20:53 Clear 83 28.3 42 5.6 24 24 S 12 19 29.84 1010 10 16 0.00 0.00
9:53 pm 21:53 Clear 80 26.7 49 9.4 34 34 S 13 20 29.87 1011 10 16 0.00 0.00
10:53 pm 22:53 Clear 77 25 59 15 54 54 S 13 20 29.88 1012 10 16 0.00 0.00
11:53 pm 23:53 Clear 76 24.4 63 17.2 64 64 S 13 20 29.90 1012 10 16 0.00 0.00

Powered by AerisWeather